GLO5520 SBGO-SBGR

Flight info

Callsign GLO5520
Flight time N/A
Altitude 35000
Route ESBOD DCT ILPAV DCT ROBAG/N0468F360 UZ38 VUNOX
Aircraft B38M/M-SDE1FGHILORVWXY/HB1

Departure

Time 2026-04-21 02:55
Airport Santa Genoveva International Airport (SBGO)

Arrival

Time N/A
Airport São Paulo/Guarulhos–Governor André Franco Montoro International Airport (SBGR)
Time Latitude Longitude Altitude Speed Heading
2026-04-21 02:19 -16.63188 -49.22621 2460 ft 0 kts 210°
2026-04-21 02:38 -16.63176 -49.22614 2460 ft 3 kts 202°
2026-04-21 02:38 -16.63157 -49.22609 2460 ft 3 kts 186°
2026-04-21 02:39 -16.63138 -49.22608 2460 ft 2 kts 180°
2026-04-21 02:39 -16.63130 -49.22608 2460 ft 1 kts 181°
2026-04-21 02:39 -16.63129 -49.22607 2460 ft 0 kts 181°
2026-04-21 02:46 -16.63130 -49.22607 2460 ft 1 kts 171°
2026-04-21 02:46 -16.63133 -49.22605 2460 ft 1 kts 147°
2026-04-21 02:47 -16.63136 -49.22601 2460 ft 1 kts 135°
2026-04-21 02:47 -16.63145 -49.22590 2463 ft 3 kts 125°
2026-04-21 02:47 -16.63157 -49.22569 2465 ft 4 kts 121°
2026-04-21 02:47 -16.63175 -49.22538 2464 ft 6 kts 124°
2026-04-21 02:48 -16.63200 -49.22498 2462 ft 7 kts 122°
2026-04-21 02:48 -16.63227 -49.22449 2463 ft 9 kts 120°
2026-04-21 02:48 -16.63260 -49.22390 2463 ft 10 kts 120°
2026-04-21 02:48 -16.63300 -49.22321 2463 ft 12 kts 120°
2026-04-21 02:49 -16.63344 -49.22241 2466 ft 13 kts 122°
2026-04-21 02:49 -16.63392 -49.22155 2466 ft 14 kts 120°
2026-04-21 02:49 -16.63445 -49.22061 2466 ft 16 kts 120°
2026-04-21 02:49 -16.63503 -49.21958 2466 ft 17 kts 120°
2026-04-21 02:50 -16.63562 -49.21852 2463 ft 15 kts 120°
2026-04-21 02:50 -16.63616 -49.21757 2467 ft 16 kts 120°
2026-04-21 02:50 -16.63674 -49.21653 2466 ft 17 kts 120°
2026-04-21 02:50 -16.63737 -49.21540 2467 ft 19 kts 120°
2026-04-21 02:51 -16.63789 -49.21447 2465 ft 10 kts 120°
2026-04-21 02:51 -16.63826 -49.21381 2469 ft 11 kts 120°
2026-04-21 02:51 -16.63834 -49.21298 2469 ft 12 kts 75°
2026-04-21 02:51 -16.63812 -49.21216 2465 ft 0 kts 75°
2026-04-21 02:52 -16.63812 -49.21215 2465 ft 1 kts 75°
2026-04-21 02:52 -16.63811 -49.21211 2468 ft 1 kts 75°
2026-04-21 02:52 -16.63807 -49.21196 2469 ft 3 kts 74°
2026-04-21 02:53 -16.63799 -49.21168 2467 ft 5 kts 71°
2026-04-21 02:53 -16.63778 -49.21136 2470 ft 6 kts 34°
2026-04-21 02:53 -16.63743 -49.21141 2467 ft 3 kts 316°
2026-04-21 02:53 -16.63736 -49.21154 2467 ft 3 kts 297°
2026-04-21 02:54 -16.63724 -49.21178 2468 ft 5 kts 300°
2026-04-21 02:54 -16.63705 -49.21211 2467 ft 0 kts 300°
2026-04-21 02:54 -16.63673 -49.21268 2469 ft 38 kts 300°
2026-04-21 02:54 -16.63409 -49.21736 2465 ft 111 kts 301°
2026-04-21 02:55 -16.62906 -49.22622 2466 ft 170 kts 301°
2026-04-21 02:55 -16.62240 -49.23793 2696 ft 203 kts 301°
2026-04-21 02:55 -16.61514 -49.25088 3586 ft 201 kts 300°
2026-04-21 02:55 -16.60812 -49.26342 4470 ft 207 kts 300°
2026-04-21 02:56 -16.60043 -49.27712 5022 ft 230 kts 300°
2026-04-21 02:56 -16.58276 -49.30857 6255 ft 269 kts 300°
2026-04-21 02:56 -16.57327 -49.32544 7225 ft 270 kts 300°
2026-04-21 02:57 -16.56430 -49.34298 7663 ft 276 kts 290°
2026-04-21 02:57 -16.56151 -49.36243 7756 ft 272 kts 264°
2026-04-21 02:57 -16.56679 -49.38113 7878 ft 269 kts 239°
2026-04-21 02:57 -16.57846 -49.39612 7904 ft 266 kts 216°
2026-04-21 02:58 -16.59470 -49.40533 7966 ft 272 kts 194°
2026-04-21 02:58 -16.61329 -49.40751 7979 ft 275 kts 172°
2026-04-21 02:58 -16.63150 -49.40193 8028 ft 276 kts 156°
2026-04-21 02:58 -16.64968 -49.39485 8044 ft 280 kts 159°
2026-04-21 02:59 -16.66802 -49.38801 8054 ft 280 kts 159°
2026-04-21 02:59 -16.68645 -49.38122 8052 ft 281 kts 159°
2026-04-21 02:59 -16.70489 -49.37449 8052 ft 280 kts 159°
2026-04-21 02:59 -16.72333 -49.36779 8053 ft 280 kts 159°
2026-04-21 03:00 -16.74176 -49.36111 8052 ft 280 kts 159°
2026-04-21 03:00 -16.76020 -49.35442 8050 ft 280 kts 159°
2026-04-21 03:00 -16.77864 -49.34775 8048 ft 281 kts 159°
2026-04-21 03:00 -16.79709 -49.34107 8046 ft 280 kts 159°
2026-04-21 03:01 -16.81532 -49.33367 8152 ft 281 kts 151°
2026-04-21 03:01 -16.83265 -49.32435 9064 ft 282 kts 152°
2026-04-21 03:01 -16.85029 -49.31504 10029 ft 286 kts 152°
2026-04-21 03:01 -16.86823 -49.30569 10713 ft 301 kts 152°
2026-04-21 03:02 -16.88763 -49.29565 11172 ft 321 kts 152°
2026-04-21 03:02 -16.90829 -49.28500 11568 ft 341 kts 153°
2026-04-21 03:02 -16.93010 -49.27378 12046 ft 356 kts 153°
2026-04-21 03:02 -16.95264 -49.26219 12708 ft 363 kts 153°
2026-04-21 03:03 -16.97536 -49.25051 13479 ft 367 kts 153°
2026-04-21 03:03 -16.99845 -49.23863 14130 ft 372 kts 153°
2026-04-21 03:03 -17.02176 -49.22664 14783 ft 375 kts 153°
2026-04-21 03:03 -17.04558 -49.21438 15419 ft 378 kts 153°
2026-04-21 03:04 -17.06901 -49.20233 16033 ft 381 kts 153°
2026-04-21 03:04 -17.09291 -49.19002 16640 ft 384 kts 153°
2026-04-21 03:04 -17.11697 -49.17763 17233 ft 387 kts 153°
2026-04-21 03:04 -17.14122 -49.16514 17814 ft 390 kts 153°
2026-04-21 03:05 -17.16571 -49.15253 18358 ft 393 kts 154°
2026-04-21 03:05 -17.19033 -49.13983 18837 ft 396 kts 154°
2026-04-21 03:05 -17.21506 -49.12708 19322 ft 398 kts 154°
2026-04-21 03:05 -17.23996 -49.11424 19796 ft 400 kts 154°
2026-04-21 03:06 -17.26506 -49.10130 20264 ft 403 kts 154°
2026-04-21 03:06 -17.29031 -49.08850 20725 ft 405 kts 158°
2026-04-21 03:06 -17.31745 -49.08079 21189 ft 406 kts 169°
2026-04-21 03:06 -17.34523 -49.07481 21614 ft 409 kts 169°
2026-04-21 03:07 -17.37316 -49.06890 22074 ft 411 kts 169°
2026-04-21 03:07 -17.40128 -49.06307 22520 ft 413 kts 169°
2026-04-21 03:07 -17.42958 -49.05724 22960 ft 416 kts 169°
2026-04-21 03:07 -17.45802 -49.05141 23397 ft 418 kts 170°
2026-04-21 03:08 -17.48669 -49.04552 23788 ft 420 kts 170°
2026-04-21 03:08 -17.51546 -49.03962 24148 ft 422 kts 170°
2026-04-21 03:08 -17.54441 -49.03367 24517 ft 424 kts 170°
2026-04-21 03:08 -17.57349 -49.02770 24874 ft 426 kts 170°
2026-04-21 03:09 -17.60266 -49.02170 25224 ft 428 kts 170°
2026-04-21 03:09 -17.63202 -49.01567 25566 ft 430 kts 170°
2026-04-21 03:09 -17.66107 -49.00969 25905 ft 432 kts 170°
2026-04-21 03:09 -17.69067 -49.00361 26253 ft 434 kts 170°
2026-04-21 03:10 -17.71978 -48.99478 26576 ft 439 kts 158°
2026-04-21 03:10 -17.74591 -48.97793 26939 ft 445 kts 143°
2026-04-21 03:10 -17.76904 -48.95620 27255 ft 448 kts 140°
2026-04-21 03:10 -17.79201 -48.93388 27560 ft 451 kts 139°
2026-04-21 03:11 -17.81492 -48.91126 27884 ft 453 kts 139°
2026-04-21 03:11 -17.83785 -48.88837 28194 ft 456 kts 139°
2026-04-21 03:11 -17.86084 -48.86527 28499 ft 458 kts 139°
2026-04-21 03:11 -17.88390 -48.84208 28798 ft 461 kts 139°
2026-04-21 03:12 -17.90712 -48.81869 29091 ft 463 kts 139°
2026-04-21 03:12 -17.93038 -48.79526 29378 ft 465 kts 139°
2026-04-21 03:12 -17.95378 -48.77167 29667 ft 467 kts 138°
2026-04-21 03:12 -17.97732 -48.74793 29944 ft 469 kts 138°
2026-04-21 03:13 -18.00093 -48.72412 30172 ft 472 kts 138°
2026-04-21 03:13 -18.02466 -48.70018 30417 ft 473 kts 138°
2026-04-21 03:13 -18.04847 -48.67614 30672 ft 475 kts 138°
2026-04-21 03:13 -18.07207 -48.65231 30917 ft 476 kts 138°
2026-04-21 03:14 -18.11969 -48.60419 30987 ft 473 kts 138°
2026-04-21 03:14 -18.16713 -48.55622 30990 ft 473 kts 138°
2026-04-21 03:15 -18.21453 -48.50824 31000 ft 473 kts 138°
2026-04-21 03:15 -18.26197 -48.46020 30992 ft 473 kts 137°
2026-04-21 03:16 -18.30936 -48.41216 31000 ft 473 kts 137°
2026-04-21 03:16 -18.35677 -48.36406 31001 ft 473 kts 137°
2026-04-21 03:17 -18.40416 -48.31596 31004 ft 473 kts 137°
2026-04-21 03:17 -18.45122 -48.26814 31006 ft 473 kts 137°
2026-04-21 03:18 -18.49857 -48.21999 31006 ft 473 kts 137°
2026-04-21 03:18 -18.54589 -48.17182 31011 ft 473 kts 137°
2026-04-21 03:19 -18.59320 -48.12363 31027 ft 473 kts 137°
2026-04-21 03:19 -18.64051 -48.07541 31037 ft 473 kts 137°
2026-04-21 03:20 -18.68780 -48.02716 31043 ft 473 kts 137°
2026-04-21 03:20 -18.72742 -47.98671 31045 ft 473 kts 137°
2026-04-21 03:21 -18.77439 -47.93871 31043 ft 473 kts 137°
2026-04-21 03:21 -18.82161 -47.89043 31036 ft 473 kts 137°
2026-04-21 03:22 -18.86887 -47.84206 31029 ft 473 kts 137°
2026-04-21 03:22 -18.91613 -47.79365 31033 ft 473 kts 137°
2026-04-21 03:23 -18.96341 -47.74518 31036 ft 473 kts 137°
2026-04-21 03:23 -19.01061 -47.69675 31040 ft 473 kts 137°
2026-04-21 03:24 -19.05752 -47.64858 31039 ft 473 kts 137°
2026-04-21 03:24 -19.10473 -47.60007 31040 ft 473 kts 137°
2026-04-21 03:25 -19.15192 -47.55152 31042 ft 473 kts 137°
2026-04-21 03:25 -19.19908 -47.50298 31046 ft 473 kts 137°
2026-04-21 03:26 -19.24600 -47.45464 31047 ft 473 kts 137°
2026-04-21 03:26 -19.29319 -47.40597 31051 ft 474 kts 137°
2026-04-21 03:27 -19.34039 -47.35725 31047 ft 474 kts 137°
2026-04-21 03:27 -19.38759 -47.30850 31054 ft 474 kts 137°
2026-04-21 03:28 -19.43484 -47.25965 31054 ft 474 kts 136°
2026-04-21 03:28 -19.48212 -47.21073 31057 ft 474 kts 136°
2026-04-21 03:29 -19.52937 -47.16180 31057 ft 475 kts 136°
2026-04-21 03:29 -19.57629 -47.11316 31055 ft 475 kts 136°
2026-04-21 03:30 -19.62359 -47.06410 31062 ft 475 kts 136°
2026-04-21 03:30 -19.67082 -47.01506 31061 ft 475 kts 136°
2026-04-21 03:31 -19.71823 -46.96579 31067 ft 476 kts 136°
2026-04-21 03:31 -19.76550 -46.91662 31064 ft 476 kts 136°
2026-04-21 03:32 -19.81279 -46.86740 31070 ft 476 kts 136°
2026-04-21 03:32 -19.86005 -46.81815 31073 ft 476 kts 136°
2026-04-21 03:33 -19.90737 -46.76881 31075 ft 477 kts 136°
2026-04-21 03:33 -19.95441 -46.71970 31076 ft 477 kts 136°
2026-04-21 03:34 -20.00175 -46.67024 31076 ft 477 kts 136°
2026-04-21 03:34 -20.04910 -46.62074 31074 ft 477 kts 136°
2026-04-21 03:35 -20.09645 -46.57119 31073 ft 477 kts 136°
2026-04-21 03:35 -20.14387 -46.52150 31077 ft 478 kts 136°
2026-04-21 03:36 -20.19125 -46.47182 31069 ft 478 kts 136°
2026-04-21 03:36 -20.23836 -46.42239 31072 ft 478 kts 136°
2026-04-21 03:37 -20.28576 -46.37260 31068 ft 478 kts 136°
2026-04-21 03:37 -20.33318 -46.32275 31070 ft 478 kts 136°
2026-04-21 03:38 -20.38024 -46.27322 31064 ft 478 kts 136°
2026-04-21 03:38 -20.42757 -46.22338 31062 ft 478 kts 136°
2026-04-21 03:39 -20.47491 -46.17349 31063 ft 478 kts 136°
2026-04-21 03:39 -20.52231 -46.12348 31063 ft 479 kts 136°
2026-04-21 03:40 -20.56968 -46.07347 31060 ft 479 kts 136°
2026-04-21 03:40 -20.61697 -46.02349 31073 ft 479 kts 136°
2026-04-21 03:41 -20.66430 -45.97342 31066 ft 479 kts 136°
2026-04-21 03:41 -20.71247 -45.92483 31052 ft 476 kts 146°
2026-04-21 03:42 -20.74144 -45.90810 31068 ft 473 kts 159°
2026-04-21 03:42 -20.77193 -45.89473 31070 ft 474 kts 159°
2026-04-21 03:42 -20.83329 -45.86864 31063 ft 474 kts 161°
2026-04-21 03:43 -20.86498 -45.85953 31060 ft 471 kts 174°
2026-04-21 03:43 -20.89753 -45.85961 31075 ft 468 kts 189°
2026-04-21 03:43 -20.96100 -45.87338 31071 ft 469 kts 193°
2026-04-21 03:44 -21.02464 -45.88870 31070 ft 469 kts 194°
2026-04-21 03:44 -21.08833 -45.90450 31070 ft 469 kts 194°
2026-04-21 03:45 -21.15193 -45.92034 31074 ft 469 kts 194°
2026-04-21 03:45 -21.21562 -45.93622 31077 ft 469 kts 194°
2026-04-21 03:46 -21.27918 -45.95208 31082 ft 469 kts 194°
2026-04-21 03:46 -21.34286 -45.96799 31085 ft 469 kts 194°
2026-04-21 03:47 -21.40649 -45.98389 31085 ft 469 kts 194°
2026-04-21 03:47 -21.47019 -45.99983 31091 ft 470 kts 194°
2026-04-21 03:48 -21.53339 -46.01565 31095 ft 470 kts 194°
2026-04-21 03:48 -21.59704 -46.03160 31109 ft 470 kts 194°
2026-04-21 03:49 -21.66080 -46.04759 31100 ft 470 kts 194°
2026-04-21 03:49 -21.72446 -46.06357 31113 ft 470 kts 194°
2026-04-21 03:50 -21.78820 -46.07959 31124 ft 470 kts 194°
2026-04-21 03:50 -21.85187 -46.09560 31123 ft 470 kts 194°
2026-04-21 03:51 -21.91566 -46.11165 31117 ft 470 kts 194°
2026-04-21 03:51 -21.97894 -46.12759 31122 ft 470 kts 194°
2026-04-21 03:52 -22.01065 -46.13559 30471 ft 466 kts 194°
2026-04-21 03:52 -22.04257 -46.14364 29161 ft 476 kts 194°
2026-04-21 03:52 -22.07515 -46.15186 28045 ft 481 kts 194°
2026-04-21 03:52 -22.10766 -46.16007 27183 ft 479 kts 194°
2026-04-21 03:53 -22.14027 -46.16831 26290 ft 479 kts 194°
2026-04-21 03:53 -22.17262 -46.17648 25544 ft 475 kts 194°
2026-04-21 03:53 -22.20477 -46.18461 24783 ft 473 kts 194°
2026-04-21 03:53 -22.23671 -46.19269 24030 ft 471 kts 194°
2026-04-21 03:54 -22.26855 -46.20074 23191 ft 469 kts 194°
2026-04-21 03:54 -22.30017 -46.20875 22384 ft 465 kts 194°
2026-04-21 03:54 -22.33188 -46.21478 21712 ft 459 kts 188°
2026-04-21 03:54 -22.36321 -46.21943 21199 ft 450 kts 188°
2026-04-21 03:55 -22.39369 -46.22416 20699 ft 448 kts 189°
2026-04-21 03:55 -22.42448 -46.22907 20165 ft 445 kts 189°
2026-04-21 03:55 -22.45501 -46.23398 19642 ft 441 kts 189°
2026-04-21 03:55 -22.48527 -46.23887 19113 ft 438 kts 188°
2026-04-21 03:56 -22.51529 -46.24372 18589 ft 434 kts 188°
2026-04-21 03:56 -22.54513 -46.24848 18077 ft 431 kts 188°
2026-04-21 03:56 -22.57470 -46.25305 17658 ft 428 kts 188°
2026-04-21 03:56 -22.60414 -46.25761 17315 ft 426 kts 188°
2026-04-21 03:57 -22.63344 -46.26217 16965 ft 423 kts 188°
2026-04-21 03:57 -22.66247 -46.26668 16607 ft 420 kts 188°
2026-04-21 03:57 -22.69135 -46.27117 16254 ft 418 kts 188°
2026-04-21 03:57 -22.72007 -46.27564 15903 ft 415 kts 187°
2026-04-21 03:58 -22.74857 -46.28008 15555 ft 412 kts 187°
2026-04-21 03:58 -22.77641 -46.28580 15159 ft 404 kts 197°
2026-04-21 03:58 -22.80159 -46.29849 14854 ft 395 kts 207°
2026-04-21 03:58 -22.82548 -46.31256 14525 ft 386 kts 207°
2026-04-21 03:59 -22.84881 -46.32662 14207 ft 379 kts 207°
2026-04-21 03:59 -22.87156 -46.34050 13882 ft 372 kts 208°
2026-04-21 03:59 -22.89383 -46.35422 13530 ft 365 kts 208°
2026-04-21 04:00 -22.93673 -46.38078 12923 ft 350 kts 208°
2026-04-21 04:00 -22.95773 -46.39381 12628 ft 343 kts 208°
2026-04-21 04:00 -22.97829 -46.40658 12339 ft 337 kts 208°
2026-04-21 04:00 -22.99848 -46.41911 12050 ft 331 kts 208°
2026-04-21 04:01 -23.01830 -46.43142 11767 ft 325 kts 208°
2026-04-21 04:01 -23.03779 -46.44354 11497 ft 320 kts 208°
2026-04-21 04:01 -23.05693 -46.45543 11244 ft 314 kts 208°
2026-04-21 04:01 -23.07575 -46.46713 10967 ft 309 kts 208°
2026-04-21 04:02 -23.09427 -46.47866 10698 ft 305 kts 208°
2026-04-21 04:02 -23.11253 -46.49002 10454 ft 300 kts 208°
2026-04-21 04:02 -23.12945 -46.50055 10213 ft 296 kts 208°
2026-04-21 04:02 -23.14694 -46.51144 9985 ft 283 kts 208°
2026-04-21 04:03 -23.16365 -46.52185 9741 ft 270 kts 208°
2026-04-21 04:03 -23.17953 -46.53175 9511 ft 257 kts 207°
2026-04-21 04:03 -23.19467 -46.54118 9287 ft 244 kts 207°
2026-04-21 04:03 -23.20895 -46.55027 9075 ft 232 kts 210°
2026-04-21 04:04 -23.22222 -46.55968 8843 ft 223 kts 210°
2026-04-21 04:04 -23.23499 -46.56870 8615 ft 213 kts 210°
2026-04-21 04:04 -23.24735 -46.57740 8428 ft 212 kts 209°
2026-04-21 04:04 -23.25977 -46.58615 8240 ft 212 kts 209°
2026-04-21 04:05 -23.27204 -46.59486 8067 ft 211 kts 210°
2026-04-21 04:05 -23.28433 -46.60360 7919 ft 211 kts 210°
2026-04-21 04:05 -23.29661 -46.61232 7775 ft 211 kts 210°
2026-04-21 04:05 -23.30875 -46.62094 7601 ft 210 kts 210°
2026-04-21 04:06 -23.32078 -46.62950 7393 ft 209 kts 209°
2026-04-21 04:06 -23.33299 -46.63817 7211 ft 209 kts 209°
2026-04-21 04:06 -23.34513 -46.64680 7055 ft 208 kts 209°
2026-04-21 04:06 -23.35723 -46.65539 6911 ft 208 kts 209°
2026-04-21 04:07 -23.36524 -46.66109 6794 ft 208 kts 209°
2026-04-21 04:07 -23.37735 -46.66970 6649 ft 208 kts 209°
2026-04-21 04:07 -23.39354 -46.68121 6332 ft 207 kts 209°
2026-04-21 04:07 -23.40153 -46.68689 6142 ft 206 kts 209°
2026-04-21 04:08 -23.41425 -46.69329 5882 ft 199 kts 184°
2026-04-21 04:08 -23.42761 -46.69145 5767 ft 195 kts 155°
2026-04-21 04:08 -23.43831 -46.68274 5689 ft 193 kts 130°
2026-04-21 04:08 -23.44613 -46.67194 5564 ft 168 kts 128°
2026-04-21 04:09 -23.45304 -46.66261 5449 ft 153 kts 127°
2026-04-21 04:09 -23.45928 -46.65331 5330 ft 151 kts 124°
2026-04-21 04:09 -23.46514 -46.64402 5225 ft 150 kts 124°
2026-04-21 04:09 -23.47085 -46.63452 5092 ft 150 kts 116°
2026-04-21 04:10 -23.47183 -46.62342 4973 ft 151 kts 83°
2026-04-21 04:10 -23.46916 -46.61224 4843 ft 153 kts 76°
2026-04-21 04:10 -23.46603 -46.60116 4666 ft 152 kts 76°
2026-04-21 04:10 -23.46302 -46.59011 4496 ft 152 kts 76°
2026-04-21 04:11 -23.46006 -46.57912 4301 ft 151 kts 76°
2026-04-21 04:11 -23.45711 -46.56814 4130 ft 151 kts 76°
2026-04-21 04:11 -23.45415 -46.55719 3916 ft 151 kts 76°
2026-04-21 04:11 -23.45121 -46.54624 3743 ft 150 kts 75°
2026-04-21 04:12 -23.44828 -46.53534 3543 ft 150 kts 75°
2026-04-21 04:12 -23.44539 -46.52436 3298 ft 151 kts 74°
2026-04-21 04:12 -23.44235 -46.51356 3101 ft 152 kts 75°
2026-04-21 04:12 -23.43963 -46.50243 2883 ft 152 kts 73°
2026-04-21 04:13 -23.43650 -46.49151 2648 ft 150 kts 73°
2026-04-21 04:13 -23.43350 -46.48048 2480 ft 151 kts 72°
2026-04-21 04:13 -23.43098 -46.47054 2525 ft 133 kts 75°
2026-04-21 04:13 -23.42839 -46.46044 2558 ft 144 kts 70°
2026-04-21 04:14 -23.42467 -46.45011 2663 ft 149 kts 69°
2026-04-21 04:14 -23.42113 -46.43944 3052 ft 152 kts 71°
2026-04-21 04:14 -23.41831 -46.42818 3328 ft 155 kts 83°
2026-04-21 04:14 -23.41823 -46.41648 3217 ft 154 kts 95°
2026-04-21 04:15 -23.41926 -46.40483 3118 ft 155 kts 95°
2026-04-21 04:15 -23.41941 -46.39304 3549 ft 152 kts 79°
2026-04-21 04:15 -23.41633 -46.38157 4164 ft 173 kts 73°
2026-04-21 04:15 -23.41245 -46.36883 3957 ft 175 kts 73°
2026-04-21 04:16 -23.40869 -46.35645 3930 ft 171 kts 73°
2026-04-21 04:16 -23.40496 -46.34418 3949 ft 171 kts 73°
2026-04-21 04:16 -23.40121 -46.33179 4048 ft 174 kts 73°
2026-04-21 04:16 -23.39732 -46.31914 4644 ft 181 kts 73°
2026-04-21 04:17 -23.39304 -46.30546 5171 ft 201 kts 73°
2026-04-21 04:17 -23.38817 -46.29033 5686 ft 220 kts 73°
2026-04-21 04:17 -23.38287 -46.27428 6398 ft 237 kts 73°
2026-04-21 04:17 -23.37689 -46.25658 7042 ft 260 kts 73°
2026-04-21 04:18 -23.37017 -46.23781 7597 ft 280 kts 65°
2026-04-21 04:18 -23.35685 -46.22229 7609 ft 289 kts 32°
2026-04-21 04:18 -23.33742 -46.21661 7701 ft 295 kts 359°
2026-04-21 04:18 -23.31780 -46.22270 7825 ft 298 kts 327°
2026-04-21 04:19 -23.30379 -46.23883 7950 ft 295 kts 295°
2026-04-21 04:19 -23.29943 -46.26011 8064 ft 289 kts 263°
2026-04-21 04:19 -23.30253 -46.28174 8128 ft 291 kts 262°
2026-04-21 04:19 -23.30048 -46.30372 8158 ft 295 kts 279°
2026-04-21 04:20 -23.29679 -46.32568 8165 ft 295 kts 277°
2026-04-21 04:20 -23.29367 -46.34775 8161 ft 295 kts 276°
2026-04-21 04:20 -23.29077 -46.36983 8168 ft 295 kts 275°
2026-04-21 04:20 -23.28799 -46.39197 8171 ft 295 kts 275°
2026-04-21 04:21 -23.28529 -46.41409 8155 ft 295 kts 276°
2026-04-21 04:21 -23.28263 -46.43618 8179 ft 295 kts 275°
2026-04-21 04:21 -23.28000 -46.45828 8172 ft 295 kts 275°
2026-04-21 04:21 -23.27737 -46.48042 8168 ft 295 kts 275°
2026-04-21 04:22 -23.27475 -46.50255 8175 ft 295 kts 275°
2026-04-21 04:22 -23.27213 -46.52462 8167 ft 294 kts 275°
2026-04-21 04:22 -23.26949 -46.54673 8159 ft 295 kts 275°
2026-04-21 04:22 -23.26825 -46.56882 8146 ft 291 kts 259°
2026-04-21 04:23 -23.27492 -46.58909 8159 ft 283 kts 233°
2026-04-21 04:23 -23.28836 -46.60427 8158 ft 276 kts 214°
2026-04-21 04:23 -23.30373 -46.61611 7831 ft 274 kts 212°
2026-04-21 04:23 -23.31923 -46.62767 7426 ft 266 kts 211°
2026-04-21 04:24 -23.33429 -46.63868 7134 ft 255 kts 211°
2026-04-21 04:24 -23.34868 -46.64911 6916 ft 242 kts 210°
2026-04-21 04:24 -23.36239 -46.65896 6723 ft 229 kts 210°
2026-04-21 04:24 -23.37535 -46.66824 6563 ft 216 kts 210°
2026-04-21 04:25 -23.38750 -46.67692 6423 ft 201 kts 210°
2026-04-21 04:25 -23.39871 -46.68490 6283 ft 185 kts 209°
2026-04-21 04:25 -23.40938 -46.69229 6152 ft 180 kts 203°
2026-04-21 04:25 -23.42115 -46.69466 5971 ft 170 kts 169°
2026-04-21 04:26 -23.43192 -46.68989 5894 ft 166 kts 142°
2026-04-21 04:26 -23.43970 -46.68090 5848 ft 162 kts 129°
2026-04-21 04:26 -23.44662 -46.67148 5721 ft 155 kts 131°
2026-04-21 04:26 -23.45314 -46.66263 5603 ft 146 kts 128°
2026-04-21 04:27 -23.45901 -46.65376 5491 ft 143 kts 126°
2026-04-21 04:27 -23.46462 -46.64482 5405 ft 143 kts 125°
2026-04-21 04:27 -23.47013 -46.63601 5326 ft 143 kts 124°
2026-04-21 04:27 -23.47249 -46.62562 5116 ft 146 kts 84°
2026-04-21 04:28 -23.46968 -46.61487 4955 ft 148 kts 78°
2026-04-21 04:28 -23.46679 -46.60415 4767 ft 147 kts 78°
2026-04-21 04:28 -23.46393 -46.59350 4552 ft 146 kts 77°
2026-04-21 04:28 -23.46107 -46.58287 4366 ft 146 kts 77°
2026-04-21 04:29 -23.45821 -46.57223 4173 ft 146 kts 77°
2026-04-21 04:29 -23.45534 -46.56163 4029 ft 146 kts 76°
2026-04-21 04:29 -23.45250 -46.55104 3980 ft 145 kts 76°
2026-04-21 04:29 -23.44975 -46.54042 3879 ft 146 kts 77°
2026-04-21 04:30 -23.44713 -46.52978 3534 ft 145 kts 75°
2026-04-21 04:30 -23.44407 -46.51928 3185 ft 145 kts 73°
2026-04-21 04:30 -23.44123 -46.50874 3001 ft 146 kts 74°
2026-04-21 04:30 -23.43835 -46.49817 2793 ft 146 kts 75°
2026-04-21 04:31 -23.43563 -46.48761 2603 ft 144 kts 72°
2026-04-21 04:31 -23.43258 -46.47681 2471 ft 148 kts 74°
2026-04-21 04:31 -23.43017 -46.46856 2513 ft 131 kts 72°
2026-04-21 04:32 -23.42974 -46.46706 2558 ft 136 kts 73°
2026-04-21 04:32 -23.42687 -46.45650 3155 ft 154 kts 73°
2026-04-21 04:32 -23.42334 -46.44480 3731 ft 178 kts 72°
2026-04-21 04:32 -23.41879 -46.43123 4275 ft 203 kts 71°
2026-04-21 04:33 -23.41528 -46.42139 4636 ft 226 kts 70°